When you browse on this site, cookies collect data to enhance your experience and personalize the content and advertising you see.
Visit our Privacy Policy to learn more. By continuing to use the site, you agree to this use of cookies and data.
  • în România
  • Lista ţărilor
  • Pe 7 zile
  • Temperatura apei
  • Hartă satelitară
  • Meteo pe hartă
  • Widget-uri
  • user-avatar
    Intrare

    Meteo pe oră la Podem-Mihaylovka

    Astăzi, 24 Martie, Duminică

    Timp Temperatura Precipitaţii Vânt Presiune Umiditate
    00:00 -5°C° 0 mm 2 m/s 760 mmHg 92%
    01:00 -5°C° 0 mm 2 m/s 760 mmHg 93%
    02:00 -5°C° 0 mm 2 m/s 760 mmHg 93%
    03:00 -5°C° 0 mm 2 m/s 760 mmHg 92%
    04:00 -5°C° 0 mm 2 m/s 760 mmHg 92%
    05:00 -5°C° 0 mm 2 m/s 760 mmHg 92%
    06:00 -5°C° 0 mm 2 m/s 760 mmHg 92%
    07:00 -4°C° 0 mm 2 m/s 760 mmHg 92%
    08:00 -2°C° 0 mm 2 m/s 760 mmHg 92%
    09:00 -1°C° 0 mm 2 m/s 760 mmHg 92%
    10:00 -1°C° 0.1 mm 2 m/s 759 mmHg 95%
    11:00 -1°C° 0.1 mm 2 m/s 759 mmHg 97%
    12:00 +1°C° 0.1 mm 2 m/s 759 mmHg 99%
    13:00 +1°C° 0 mm 2 m/s 758 mmHg 99%
    14:00 +1°C° 0 mm 2 m/s 758 mmHg 99%
    15:00 +1°C° 0 mm 2 m/s 757 mmHg 99%
    16:00 0°C° 0 mm 3 m/s 756 mmHg 99%
    17:00 0°C° 0 mm 3 m/s 756 mmHg 98%
    18:00 -1°C° 0 mm 3 m/s 755 mmHg 97%
    19:00 -2°C° 0.1 mm 4 m/s 754 mmHg 97%
    20:00 -2°C° 0.1 mm 5 m/s 753 mmHg 96%
    21:00 -2°C° 0.1 mm 5 m/s 752 mmHg 95%
    22:00 -2°C° 0.6 mm 6 m/s 750 mmHg 96%
    23:00 -2°C° 0.6 mm 6 m/s 749 mmHg 97%

    Mâine, 25 Martie, Luni

    Timp Temperatura Precipitaţii Vânt Presiune Umiditate
    00:00 -1°C° 0.6 mm 7 m/s 748 mmHg 98%
    01:00 -1°C° 1.1 mm 7 m/s 747 mmHg 98%
    02:00 -1°C° 1.1 mm 6 m/s 746 mmHg 98%
    03:00 -1°C° 1.1 mm 6 m/s 744 mmHg 98%
    04:00 -2°C° 0.1 mm 6 m/s 744 mmHg 96%
    05:00 -2°C° 0.1 mm 6 m/s 743 mmHg 93%
    06:00 -2°C° 0.1 mm 6 m/s 743 mmHg 91%
    07:00 -2°C° 0.1 mm 7 m/s 743 mmHg 91%
    08:00 -2°C° 0.1 mm 8 m/s 743 mmHg 91%
    09:00 -2°C° 0.1 mm 8 m/s 743 mmHg 91%
    10:00 -3°C° 0.3 mm 9 m/s 744 mmHg 91%
    11:00 -3°C° 0.3 mm 9 m/s 744 mmHg 90%
    12:00 -3°C° 0.3 mm 10 m/s 745 mmHg 90%
    13:00 -3°C° 0.1 mm 9 m/s 745 mmHg 89%
    14:00 -3°C° 0.1 mm 9 m/s 746 mmHg 88%
    15:00 -2°C° 0.1 mm 8 m/s 747 mmHg 87%
    16:00 -2°C° 0.1 mm 8 m/s 747 mmHg 88%
    17:00 -2°C° 0.1 mm 7 m/s 748 mmHg 89%
    18:00 -2°C° 0.1 mm 6 m/s 749 mmHg 90%
    19:00 -2°C° 0.1 mm 6 m/s 749 mmHg 89%
    20:00 -2°C° 0.1 mm 6 m/s 750 mmHg 88%
    21:00 -2°C° 0.1 mm 6 m/s 751 mmHg 87%
    22:00 -3°C° 0 mm 6 m/s 751 mmHg 88%
    23:00 -4°C° 0 mm 6 m/s 752 mmHg 89%

    Poimâine, 26 Martie, Marţi

    Timp Temperatura Precipitaţii Vânt Presiune Umiditate
    00:00 -5°C° 0 mm 6 m/s 752 mmHg 90%
    01:00 -5°C° 0 mm 5 m/s 753 mmHg 90%
    02:00 -6°C° 0 mm 5 m/s 754 mmHg 91%
    03:00 -5°C° 0 mm 4 m/s 754 mmHg 91%
    04:00 -7°C° 0 mm 4 m/s 755 mmHg 92%
    05:00 -7°C° 0 mm 4 m/s 756 mmHg 92%
    06:00 -8°C° 0 mm 4 m/s 756 mmHg 92%
    07:00 -7°C° 0 mm 4 m/s 756 mmHg 92%
    08:00 -5°C° 0 mm 4 m/s 757 mmHg 91%
    09:00 -4°C° 0 mm 4 m/s 757 mmHg 90%
    10:00 -3°C° 0 mm 4 m/s 757 mmHg 91%
    11:00 -3°C° 0 mm 4 m/s 758 mmHg 92%
    12:00 -2°C° 0 mm 4 m/s 758 mmHg 92%
    13:00 -2°C° 0 mm 4 m/s 758 mmHg 91%
    14:00 -2°C° 0 mm 4 m/s 758 mmHg 91%
    15:00 -1°C° 0 mm 4 m/s 758 mmHg 90%
    16:00 -2°C° 0 mm 4 m/s 757 mmHg 89%
    17:00 -3°C° 0 mm 4 m/s 757 mmHg 89%
    18:00 -3°C° 0 mm 4 m/s 757 mmHg 89%
    19:00 -2°C° 0.1 mm 5 m/s 757 mmHg 87%
    20:00 -3°C° 0.1 mm 6 m/s 756 mmHg 85%
    21:00 -2°C° 0.1 mm 7 m/s 756 mmHg 83%
    22:00 -1°C° 0.3 mm 8 m/s 756 mmHg 83%
    23:00 -1°C° 0.3 mm 8 m/s 755 mmHg 84%

    27 Martie, Miercuri

    Timp Temperatura Precipitaţii Vânt Presiune Umiditate
    00:00 0°C° 0.3 mm 9 m/s 755 mmHg 84%
    01:00 0°C° 0.3 mm 9 m/s 755 mmHg 83%
    02:00 0°C° 0.3 mm 9 m/s 754 mmHg 83%
    03:00 0°C° 0.3 mm 9 m/s 754 mmHg 82%
    04:00 0°C° 0.4 mm 9 m/s 754 mmHg 84%
    05:00 0°C° 0.4 mm 8 m/s 754 mmHg 85%
    06:00 -1°C° 0.4 mm 8 m/s 754 mmHg 86%
    07:00 -1°C° 0.4 mm 8 m/s 754 mmHg 86%
    08:00 -1°C° 0.4 mm 8 m/s 754 mmHg 86%
    09:00 -1°C° 0.4 mm 8 m/s 754 mmHg 85%
    10:00 -1°C° 0.2 mm 8 m/s 754 mmHg 87%
    11:00 -1°C° 0.2 mm 8 m/s 755 mmHg 89%
    12:00 -1°C° 0.2 mm 7 m/s 755 mmHg 91%
    13:00 -1°C° 0.4 mm 7 m/s 755 mmHg 93%
    14:00 -1°C° 0.4 mm 6 m/s 755 mmHg 95%
    15:00 -1°C° 0.4 mm 5 m/s 755 mmHg 97%
    16:00 -1°C° 0.3 mm 4 m/s 756 mmHg 97%
    17:00 0°C° 0.3 mm 3 m/s 756 mmHg 96%
    18:00 0°C° 0.3 mm 3 m/s 756 mmHg 96%
    19:00 +1°C° 0.1 mm 2 m/s 756 mmHg 96%
    20:00 +1°C° 0.1 mm 2 m/s 756 mmHg 96%
    21:00 +1°C° 0.1 mm 2 m/s 757 mmHg 96%
    22:00 +1°C° 0.1 mm 1 m/s 757 mmHg 96%
    23:00 +1°C° 0.1 mm 1 m/s 757 mmHg 95%

    28 Martie, Joi

    Timp Temperatura Precipitaţii Vânt Presiune Umiditate
    00:00 +1°C° 0.1 mm 1 m/s 756 mmHg 95%
    01:00 0°C° 0 mm 1 m/s 756 mmHg 95%
    02:00 0°C° 0 mm 1 m/s 756 mmHg 94%
    03:00 -1°C° 0 mm 1 m/s 756 mmHg 94%
    04:00 -1°C° 0 mm 1 m/s 756 mmHg 94%
    05:00 -1°C° 0 mm 1 m/s 756 mmHg 94%
    06:00 -4°C° 0 mm 2 m/s 756 mmHg 93%
    07:00 -3°C° 0 mm 2 m/s 756 mmHg 92%
    08:00 -2°C° 0 mm 2 m/s 756 mmHg 91%
    09:00 -1°C° 0 mm 3 m/s 756 mmHg 90%
    10:00 -1°C° 0 mm 3 m/s 756 mmHg 89%
    11:00 0°C° 0 mm 3 m/s 756 mmHg 88%
    12:00 0°C° 0 mm 3 m/s 756 mmHg 86%
    13:00 0°C° 0 mm 3 m/s 756 mmHg 84%
    14:00 0°C° 0 mm 3 m/s 755 mmHg 82%
    15:00 0°C° 0 mm 3 m/s 755 mmHg 80%
    16:00 0°C° 0 mm 3 m/s 755 mmHg 82%
    17:00 -1°C° 0 mm 3 m/s 755 mmHg 84%
    18:00 -2°C° 0 mm 3 m/s 756 mmHg 85%
    19:00 -2°C° 0 mm 3 m/s 756 mmHg 87%
    20:00 -2°C° 0 mm 3 m/s 756 mmHg 89%
    21:00 -2°C° 0 mm 3 m/s 756 mmHg 91%
    22:00 -2°C° 0 mm 3 m/s 756 mmHg 92%
    23:00 -2°C° 0 mm 3 m/s 756 mmHg 92%

    29 Martie, Vineri

    Timp Temperatura Precipitaţii Vânt Presiune Umiditate
    00:00 -2°C° 0 mm 3 m/s 756 mmHg 93%
    01:00 -3°C° 0 mm 4 m/s 757 mmHg 93%
    02:00 -3°C° 0 mm 4 m/s 757 mmHg 93%
    03:00 -3°C° 0 mm 4 m/s 757 mmHg 93%
    04:00 -3°C° 0 mm 4 m/s 757 mmHg 92%
    05:00 -3°C° 0 mm 4 m/s 758 mmHg 91%
    06:00 -3°C° 0 mm 4 m/s 758 mmHg 90%
    07:00 -3°C° 0 mm 4 m/s 758 mmHg 88%
    08:00 -3°C° 0 mm 4 m/s 758 mmHg 85%
    09:00 -3°C° 0 mm 4 m/s 759 mmHg 82%
    10:00 -2°C° 0 mm 4 m/s 758 mmHg 81%
    11:00 -1°C° 0 mm 3 m/s 758 mmHg 79%
    12:00 0°C° 0 mm 3 m/s 758 mmHg 77%
    13:00 -1°C° 0 mm 4 m/s 758 mmHg 78%
    14:00 -1°C° 0 mm 4 m/s 757 mmHg 79%
    15:00 -1°C° 0 mm 5 m/s 757 mmHg 79%
    16:00 -2°C° 0 mm 5 m/s 757 mmHg 82%
    17:00 -4°C° 0 mm 5 m/s 756 mmHg 84%
    18:00 -4°C° 0 mm 5 m/s 756 mmHg 87%
    19:00 -4°C° 0.1 mm 5 m/s 756 mmHg 88%
    20:00 -3°C° 0.1 mm 4 m/s 755 mmHg 90%
    21:00 -4°C° 0.1 mm 4 m/s 755 mmHg 92%
    22:00 -4°C° 0 mm 4 m/s 755 mmHg 92%
    23:00 -3°C° 0 mm 4 m/s 755 mmHg 93%
    Arată mai mult